^^
Soleil Laural Canyon Historical Data
 
Daily Summary for July 23, 2019 Units:  English    Metric   Both
Daily Weekly Monthly Yearly Custom
  Current: High: Low: Average:
Temperature: 71.8 °F 81 °F 71.8 °F 75.5 °F
Dew Point: 62.2 °F 72.7 °F 61.3 °F 68.7 °F
Humidity: 72% 95% 58% 81%
Wind Speed: 0mph 9.6mph 0mph 1.4mph
Wind Gust: 0mph 10.3mph - -
WindCalm - - SSE
Pressure: 30.02 in 30.02 in 29.94 in -
Precipitation: 0.01 in      
Historical Graphs
 
 
Tabular Data for July 23, 2019
Time Temperature Dew Point Pressure Wind Wind Speed Wind Gust Humidity Rainfall Rate (Hourly) solar
00:04 75.7 °F 70.9 °F 30.00 in Calm     85% 0 in 0.00 W/m2
00:09 75.9 °F 70.7 °F 30.00 in Calm     84% 0 in 0.00 W/m2
00:14 75.9 °F 71.1 °F 30.00 in Calm     85% 0 in 0.00 W/m2
00:19 75.7 °F 70.9 °F 29.99 in Calm     85% 0 in 0.00 W/m2
00:24 75.7 °F 70.9 °F 30.00 in Calm     85% 0 in 0.00 W/m2
00:29 75.6 °F 70.7 °F 29.99 in Calm     85% 0 in 0.00 W/m2
00:34 75.6 °F 70.7 °F 29.99 in Calm     85% 0 in 0.00 W/m2
00:39 75.4 °F 70.9 °F 30.00 in Calm     86% 0 in 0.00 W/m2
00:44 75.2 °F 70.7 °F 29.99 in Calm     86% 0 in 0.00 W/m2
00:49 75 °F 70.9 °F 29.98 in Calm     87% 0 in 0.00 W/m2
00:54 74.8 °F 70.7 °F 29.99 in Calm     87% 0 in 0.00 W/m2
00:59 74.8 °F 71.1 °F 29.99 in Calm     88% 0 in 0.00 W/m2
01:04 74.7 °F 70.9 °F 29.99 in Calm     88% 0 in 0.00 W/m2
01:09 74.7 °F 70.9 °F 29.98 in Calm     88% 0 in 0.00 W/m2
01:14 74.7 °F 70.9 °F 29.98 in Calm     88% 0 in 0.00 W/m2
01:19 74.5 °F 70.7 °F 29.97 in Calm     88% 0 in 0.00 W/m2
01:24 74.7 °F 70.9 °F 29.97 in Calm     88% 0 in 0.00 W/m2
01:29 74.7 °F 70.9 °F 29.98 in Calm     88% 0 in 0.00 W/m2
01:34 74.5 °F 70.7 °F 29.98 in Calm     88% 0 in 0.00 W/m2
01:39 74.7 °F 70.9 °F 29.97 in ENE 0.2 mph 1.1 mph 88% 0 in 0.00 W/m2
01:44 74.8 °F 71.1 °F 29.97 in SE 0.7 mph 1.1 mph 88% 0 in 0.00 W/m2
01:49 75 °F 70.9 °F 29.98 in SE 1.3 mph 2.2 mph 87% 0 in 0.00 W/m2
01:54 75.2 °F 70.7 °F 29.97 in ENE 1.8 mph 3.4 mph 86% 0 in 0.00 W/m2
01:59 75.2 °F 70.7 °F 29.98 in East 1.1 mph 1.1 mph 86% 0 in 0.00 W/m2
02:04 75 °F 70.5 °F 29.98 in Calm     86% 0 in 0.00 W/m2
02:09 75.2 °F 70.3 °F 29.97 in ESE 1.3 mph 2.2 mph 85% 0 in 0.00 W/m2
02:14 75 °F 70.5 °F 29.98 in Calm     86% 0 in 0.00 W/m2
02:19 74.8 °F 70.3 °F 29.97 in SE 0.2 mph 1.1 mph 86% 0 in 0.00 W/m2
02:24 75.2 °F 70 °F 29.97 in ESE 2.2 mph 3.4 mph 84% 0 in 0.00 W/m2
02:29 75.2 °F 70.3 °F 29.96 in SW 0.7 mph 1.1 mph 85% 0 in 0.00 W/m2
02:34 75.2 °F 70 °F 29.96 in ESE 4 mph 5.8 mph 84% 0 in 0.00 W/m2
02:39 75.2 °F 70.3 °F 29.96 in ESE 1.3 mph 2.2 mph 85% 0 in 0.00 W/m2
02:44 75 °F 70.2 °F 29.97 in ESE 0.2 mph 1.1 mph 85% 0 in 0.00 W/m2
02:49 75.2 °F 70.3 °F 29.96 in Calm     85% 0 in 0.00 W/m2
02:54 75 °F 70.5 °F 29.96 in SW 0.7 mph 1.1 mph 86% 0 in 0.00 W/m2
02:59 74.7 °F 70.5 °F 29.96 in SSE 0.9 mph 1.1 mph 87% 0 in 0.00 W/m2
03:04 74.3 °F 70.5 °F 29.96 in Calm     88% 0 in 0.00 W/m2
03:09 73.9 °F 70.2 °F 29.96 in Calm     88% 0 in 0.00 W/m2
03:14 73.9 °F 70.5 °F 29.96 in SSE 1.1 mph 1.1 mph 89% 0 in 0.00 W/m2
03:19 73.8 °F 70.3 °F 29.96 in Calm     89% 0 in 0.00 W/m2
03:24 73.8 °F 70.3 °F 29.97 in East 0.9 mph 1.1 mph 89% 0 in 0.00 W/m2
03:29 73.6 °F 70.2 °F 29.96 in Calm     89% 0 in 0.00 W/m2
03:34 73.4 °F 70.3 °F 29.96 in Calm     90% 0 in 0.00 W/m2
03:39 73.2 °F 70.2 °F 29.96 in Calm     90% 0 in 0.00 W/m2
03:44 73.2 °F 70.5 °F 29.96 in Calm     91% 0 in 0.00 W/m2
03:49 73 °F 70.3 °F 29.96 in Calm     91% 0 in 0.00 W/m2
03:54 72.9 °F 70.2 °F 29.96 in Calm     91% 0 in 0.00 W/m2
03:59 72.9 °F 70.5 °F 29.96 in Calm     92% 0 in 0.00 W/m2
04:04 72.9 °F 70.5 °F 29.96 in Calm     92% 0 in 0.00 W/m2
04:09 72.9 °F 70.5 °F 29.95 in Calm     92% 0 in 0.00 W/m2
04:14 72.9 °F 70.5 °F 29.96 in East 0.2 mph 1.1 mph 92% 0 in 0.00 W/m2
04:19 72.7 °F 70.3 °F 29.96 in Calm     92% 0 in 0.00 W/m2
04:24 72.7 °F 70.3 °F 29.96 in Calm     92% 0 in 0.00 W/m2
04:29 72.7 °F 70.5 °F 29.95 in Calm     93% 0 in 0.00 W/m2
04:34 72.7 °F 70.3 °F 29.96 in Calm     92% 0 in 0.00 W/m2
04:39 72.7 °F 70.3 °F 29.96 in Calm     92% 0 in 0.00 W/m2
04:44 72.7 °F 70.3 °F 29.96 in Calm     92% 0 in 0.00 W/m2
04:49 72.7 °F 70.3 °F 29.96 in Calm     92% 0 in 0.00 W/m2
04:54 72.7 °F 70.3 °F 29.95 in Calm     92% 0 in 0.00 W/m2
04:59 72.7 °F 70.3 °F 29.96 in Calm     92% 0 in 0.00 W/m2
05:04 72.7 °F 70.3 °F 29.96 in Calm     92% 0 in 0.00 W/m2
05:09 72.7 °F 70.5 °F 29.96 in Calm     93% 0 in 0.00 W/m2
05:14 72.7 °F 70.5 °F 29.96 in Calm     93% 0 in 0.00 W/m2
05:19 72.7 °F 70.5 °F 29.96 in Calm     93% 0 in 0.00 W/m2
05:24 72.7 °F 70.5 °F 29.96 in Calm     93% 0 in 0.00 W/m2
05:29 72.7 °F 70.5 °F 29.95 in Calm     93% 0 in 0.00 W/m2
05:34 72.7 °F 70.5 °F 29.95 in Calm     93% 0 in 0.00 W/m2
05:39 72.7 °F 70.5 °F 29.95 in SE 0.2 mph 1.1 mph 93% 0 in 0.00 W/m2
05:44 72.7 °F 70.5 °F 29.96 in Calm     93% 0 in 0.00 W/m2
05:49 72.7 °F 70.7 °F 29.96 in Calm     94% 0 in 0.00 W/m2
05:54 72.7 °F 70.7 °F 29.96 in Calm     94% 0 in 0.00 W/m2
05:59 72.7 °F 70.7 °F 29.96 in ESE 0.2 mph 1.1 mph 94% 0 in 0.00 W/m2
06:04 72.7 °F 70.7 °F 29.96 in East 0.2 mph 1.1 mph 94% 0 in 0.00 W/m2
06:09 72.7 °F 70.7 °F 29.96 in East 0.9 mph 1.1 mph 94% 0 in 0.00 W/m2
06:14 72.7 °F 70.7 °F 29.96 in ENE 1.1 mph 1.1 mph 94% 0 in 0.00 W/m2
06:19 72.7 °F 70.7 °F 29.96 in East 0.7 mph 1.1 mph 94% 0 in 0.00 W/m2
06:24 72.7 °F 70.7 °F 29.96 in Calm     94% 0 in 0.00 W/m2
06:29 72.7 °F 70.7 °F 29.96 in Calm     94% 0 in 0.00 W/m2
06:34 72.5 °F 70.5 °F 29.97 in Calm     94% 0 in 0.00 W/m2
06:39 72.5 °F 70.5 °F 29.96 in Calm     94% 0 in 0.00 W/m2
06:44 72.5 °F 70.5 °F 29.96 in Calm     94% 0 in 0.00 W/m2
06:49 72.5 °F 70.9 °F 29.97 in Calm     95% 0 in 0.00 W/m2
06:54 72.3 °F 70.7 °F 29.96 in Calm     95% 0 in 0.00 W/m2
06:59 72.3 °F 70.7 °F 29.96 in Calm     95% 0 in 1.22 W/m2
07:04 72.3 °F 70.7 °F 29.96 in Calm     95% 0 in 2.08 W/m2
07:09 72.3 °F 70.7 °F 29.96 in Calm     95% 0 in 3.43 W/m2
07:14 72.3 °F 70.7 °F 29.96 in Calm     95% 0 in 5.99 W/m2
07:19 72.3 °F 70.7 °F 29.96 in Calm     95% 0 in 4.28 W/m2
07:24 72.3 °F 70.7 °F 29.97 in Calm     95% 0 in 4.77 W/m2
07:29 72.5 °F 70.9 °F 29.97 in Calm     95% 0 in 15.53 W/m2
07:34 72.5 °F 70.9 °F 29.96 in ESE 1.3 mph 2.2 mph 95% 0 in 25.07 W/m2
07:39 72.5 °F 70.9 °F 29.97 in Calm     95% 0 in 21.16 W/m2
07:44 72.7 °F 71.1 °F 29.97 in Calm     95% 0 in 22.51 W/m2
07:49 72.7 °F 71.1 °F 29.97 in Calm     95% 0 in 23.36 W/m2
07:54 72.7 °F 71.1 °F 29.97 in Calm     95% 0 in 28.63 W/m2
07:59 72.9 °F 71.2 °F 29.96 in ESE 0.9 mph 1.1 mph 95% 0 in 30.34 W/m2
08:04 72.9 °F 71.2 °F 29.98 in ESE 0.9 mph 1.1 mph 95% 0 in 32.90 W/m2
08:09 72.9 °F 71.2 °F 29.96 in Calm     95% 0 in 42.94 W/m2
08:14 72.9 °F 71.2 °F 29.97 in Calm     95% 0 in 40.73 W/m2
08:19 72.9 °F 71.2 °F 29.97 in Calm     95% 0.01 in 30.70 W/m2
08:24 72.9 °F 71.2 °F 29.97 in East 0.7 mph 1.1 mph 95% 0.01 in 41.59 W/m2
08:29 72.7 °F 71.1 °F 29.97 in East 0.4 mph 1.1 mph 95% 0.01 in 51.50 W/m2
08:34 72.9 °F 71.2 °F 29.97 in Calm     95% 0.01 in 39.02 W/m2
08:39 72.7 °F 71.1 °F 29.97 in Calm     95% 0.01 in 51.14 W/m2
08:44 72.9 °F 71.2 °F 29.97 in Calm     95% 0.01 in 40.73 W/m2
08:48 72.9 °F 71.2 °F 29.97 in SE 0.9 mph 1.1 mph 95% 0.01 in 49.79 W/m2
08:54 73 °F 71.4 °F 29.98 in East 1.3 mph 3.4 mph 95% 0.01 in 84.53 W/m2
08:59 72.9 °F 71.2 °F 29.97 in NE 1.6 mph 2.2 mph 95% 0.01 in 82.82 W/m2
09:04 73 °F 71.4 °F 29.98 in Calm     95% 0.01 in 102.76 W/m2
09:09 73.2 °F 71.6 °F 29.97 in East 2.2 mph 3.4 mph 95% 0.01 in 75.85 W/m2
09:14 73 °F 71.4 °F 29.97 in East 0.7 mph 1.1 mph 95% 0 in 59.82 W/m2
09:19 73 °F 71.4 °F 29.98 in ENE 2.9 mph 3.4 mph 95% 0 in 77.19 W/m2
09:24 73 °F 71.4 °F 29.98 in East 2.5 mph 3.4 mph 95% 0 in 70.71 W/m2
09:29 73 °F 71.4 °F 29.97 in ENE 1.8 mph 2.2 mph 95% 0 in 69.36 W/m2
09:34 73 °F 71.4 °F 29.98 in East 2.7 mph 3.4 mph 95% 0 in 85.39 W/m2
09:39 73.2 °F 71.2 °F 29.98 in ESE 4 mph 5.8 mph 94% 0 in 50.65 W/m2
09:44 73.2 °F 71.2 °F 29.98 in East 0.7 mph 1.1 mph 94% 0 in 83.19 W/m2
09:49 73.2 °F 71.2 °F 29.98 in East 2.5 mph 3.4 mph 94% 0 in 85.02 W/m2
09:54 73.4 °F 71.4 °F 29.98 in SSE 1.6 mph 2.2 mph 94% 0 in 86.73 W/m2
09:59 73.4 °F 71.4 °F 29.97 in East 4 mph 5.8 mph 94% 0 in 60.68 W/m2
10:04 73.4 °F 71.4 °F 29.98 in East 2.5 mph 3.4 mph 94% 0 in 78.41 W/m2
10:09 73.4 °F 71.4 °F 29.98 in Calm     94% 0 in 66.80 W/m2
10:14 73.4 °F 71.4 °F 29.98 in Calm     94% 0 in 59.82 W/m2
10:19 73.4 °F 71.2 °F 29.98 in ENE 2.2 mph 2.2 mph 93% 0 in 76.70 W/m2
10:24 73.6 °F 71.4 °F 29.98 in East 2.2 mph 3.4 mph 93% 0 in 68.02 W/m2
10:29 73.6 °F 71.4 °F 29.98 in ESE 1.3 mph 3.4 mph 93% 0 in 117.44 W/m2
10:34 73.8 °F 71.6 °F 29.99 in SSE 0.9 mph 1.1 mph 93% 0 in 80.25 W/m2
10:39 73.8 °F 71.4 °F 29.98 in East 0.7 mph 1.1 mph 92% 0 in 78.41 W/m2
10:44 73.8 °F 71.4 °F 29.98 in East 1.6 mph 3.4 mph 92% 0 in 171.27 W/m2
10:49 73.9 °F 71.6 °F 29.98 in ENE 2.2 mph 2.2 mph 92% 0 in 174.33 W/m2
10:54 73.9 °F 71.6 °F 29.98 in East 3.4 mph 3.4 mph 92% 0 in 232.93 W/m2
10:59 74.7 °F 72 °F 29.98 in East 1.3 mph 3.4 mph 91% 0 in 267.18 W/m2
11:04 74.7 °F 71.6 °F 29.98 in ENE 4 mph 5.8 mph 90% 0 in 149.12 W/m2
11:09 74.8 °F 71.8 °F 29.99 in SSE 0.9 mph 1.1 mph 90% 0 in 232.07 W/m2
11:14 75.4 °F 71.6 °F 29.98 in East 1.3 mph 2.2 mph 88% 0 in 426.83 W/m2
11:19 75.7 °F 71.6 °F 29.98 in SW 0.9 mph 1.1 mph 87% 0 in 225.95 W/m2
11:24 75.9 °F 71.4 °F 29.97 in SSE 1.3 mph 2.2 mph 86% 0 in 247.24 W/m2
11:29 75.9 °F 71.1 °F 29.97 in South 1.1 mph 1.1 mph 85% 0 in 224.61 W/m2
11:34 75.9 °F 71.4 °F 29.97 in WSW 0.4 mph 1.1 mph 86% 0 in 331.40 W/m2
11:39 76.8 °F 71.6 °F 29.96 in NE 0.9 mph 1.1 mph 84% 0 in 397.71 W/m2
11:44 76.6 °F 71.4 °F 29.97 in Calm     84% 0 in 526.54 W/m2
11:49 77.9 °F 71.6 °F 29.96 in WSW 0.9 mph 1.1 mph 81% 0 in 911.40 W/m2
11:54 79.2 °F 72.1 °F 29.96 in SSW 0.7 mph 2.2 mph 79% 0 in 901.86 W/m2
11:59 79.7 °F 72.7 °F 29.96 in SE 0.7 mph 1.1 mph 79% 0 in 271.95 W/m2
12:04 77.9 °F 71.6 °F 29.96 in SE 2 mph 3.4 mph 81% 0 in 262.78 W/m2
12:09 77.4 °F 70.7 °F 29.96 in SE 1.1 mph 2.2 mph 80% 0 in 362.12 W/m2
12:14 77.4 °F 71.1 °F 29.96 in SW 0.9 mph 2.2 mph 81% 0 in 139.58 W/m2
12:19 77 °F 71.1 °F 29.96 in SSE 0.9 mph 1.1 mph 82% 0 in 196.84 W/m2
12:24 77.2 °F 70.9 °F 29.95 in SSW 0.9 mph 1.1 mph 81% 0 in 451.54 W/m2
12:29 77.4 °F 70.7 °F 29.95 in ESE 0.9 mph 1.1 mph 80% 0 in 408.97 W/m2
12:34 77.4 °F 70.7 °F 29.96 in SE 0.4 mph 1.1 mph 80% 0 in 293.24 W/m2
12:39 77.7 °F 70.7 °F 29.95 in SSE 1.6 mph 3.4 mph 79% 0 in 449.34 W/m2
12:44 78.3 °F 70.9 °F 29.95 in SSE 1.3 mph 2.2 mph 78% 0 in 493.13 W/m2
12:49 78.3 °F 70.5 °F 29.95 in SSE 2.2 mph 4.5 mph 77% 0 in 419.86 W/m2
12:54 78.4 °F 70.7 °F 29.95 in SSE 4.5 mph 6.9 mph 77% 0 in 1111.79 W/m2
12:59 78.8 °F 70.7 °F 29.95 in ENE 4 mph 9.2 mph 76% 0 in 647.16 W/m2
13:04 78.4 °F 70.3 °F 29.95 in ENE 2.5 mph 4.5 mph 76% 0 in 579.14 W/m2
13:09 78.6 °F 70.2 °F 29.95 in ESE 3.6 mph 6.9 mph 75% 0 in 734.87 W/m2
13:14 78.8 °F 70.3 °F 29.96 in SSE 3.1 mph 4.5 mph 75% 0 in 347.43 W/m2
13:19 78.8 °F 69.8 °F 29.96 in NE 0.2 mph 1.1 mph 74% 0 in 1166.47 W/m2
13:24 80.1 °F 71.1 °F 29.95 in South 4.5 mph 6.9 mph 74% 0 in 840.21 W/m2
13:29 79.3 °F 70 °F 29.95 in SW 2.7 mph 5.8 mph 73% 0 in 957.77 W/m2
13:34 79 °F 70 °F 29.95 in East 2 mph 2.2 mph 74% 0 in 352.57 W/m2
13:39 79.5 °F 70.5 °F 29.95 in East 1.8 mph 3.4 mph 74% 0 in 625.01 W/m2
13:44 80.1 °F 70.7 °F 29.96 in SE 2.5 mph 4.5 mph 73% 0 in 931.34 W/m2
13:49 79.7 °F 70.3 °F 29.95 in South 1.6 mph 2.2 mph 73% 0 in 411.66 W/m2
13:54 79.9 °F 70.5 °F 29.95 in East 1.6 mph 3.4 mph 73% 0 in 457.66 W/m2
13:59 78.8 °F 69.8 °F 29.96 in ENE 1.8 mph 3.4 mph 74% 0 in 268.03 W/m2
14:04 77.7 °F 69.3 °F 29.95 in SSE 0.2 mph 1.1 mph 75% 0 in 363.46 W/m2
14:09 77.5 °F 69.1 °F 29.95 in SSE 3.6 mph 5.8 mph 75% 0 in 514.91 W/m2
14:14 78.6 °F 69.6 °F 29.95 in SSE 1.8 mph 2.2 mph 74% 0 in 463.28 W/m2
14:19 79.5 °F 70.2 °F 29.96 in East 3.4 mph 5.8 mph 73% 0 in 552.23 W/m2
14:24 79.7 °F 69.4 °F 29.96 in WSW 1.1 mph 1.1 mph 71% 0 in 357.34 W/m2
14:29 78.6 °F 69.3 °F 29.96 in East 9.6 mph 10.3 mph 73% 0 in 391.23 W/m2
14:34 78.3 °F 69.3 °F 29.96 in East 1.8 mph 3.4 mph 74% 0 in 307.92 W/m2
14:39 78.4 °F 69.4 °F 29.95 in SE 2.9 mph 4.5 mph 74% 0 in 395.64 W/m2
14:44 79.5 °F 69.3 °F 29.95 in ESE 3.8 mph 6.9 mph 71% 0 in 342.17 W/m2
14:49 79.5 °F 69.6 °F 29.96 in NW 2.2 mph 3.4 mph 72% 0 in 844.12 W/m2
14:54 79.9 °F 70 °F 29.96 in South 0.2 mph 1.1 mph 72% 0 in 330.92 W/m2
14:59 81 °F 70.3 °F 29.95 in SSE 0.9 mph 2.2 mph 70% 0 in 576.45 W/m2
15:04 80.1 °F 69.4 °F 29.95 in ESE 1.6 mph 4.5 mph 70% 0 in 428.54 W/m2
15:09 80.1 °F 69.8 °F 29.95 in ESE 2 mph 3.4 mph 71% 0 in 689.24 W/m2
15:14 79.9 °F 69.3 °F 29.95 in South 2.9 mph 4.5 mph 70% 0 in 429.03 W/m2
15:19 79.9 °F 69.6 °F 29.96 in South 2.2 mph 3.4 mph 71% 0 in 448.97 W/m2
15:24 79.9 °F 69.6 °F 29.95 in SSW 2.5 mph 3.4 mph 71% 0 in 1200.73 W/m2
15:29 79.7 °F 69.4 °F 29.96 in North 1.8 mph 3.4 mph 71% 0 in 1091.36 W/m2
15:34 79 °F 69.3 °F 29.95 in SSE 3.1 mph 3.4 mph 72% 0 in 286.27 W/m2
15:39 78.4 °F 69.1 °F 29.95 in WSW 2.2 mph 3.4 mph 73% 0 in 402.12 W/m2
15:44 77.7 °F 68.9 °F 29.95 in SW 1.3 mph 2.2 mph 74% 0 in 151.33 W/m2
15:49 77.7 °F 69.3 °F 29.96 in SSE 1.3 mph 3.4 mph 75% 0 in 137.87 W/m2
15:54 77.2 °F 67.8 °F 29.95 in SSE 3.4 mph 5.8 mph 73% 0 in 287.98 W/m2
15:59 77.9 °F 68.5 °F 29.96 in SSW 2.5 mph 3.4 mph 73% 0 in 1057.10 W/m2
16:04 79 °F 69.6 °F 29.94 in SW 2 mph 3.4 mph 73% 0 in 610.33 W/m2
16:09 79.7 °F 69.4 °F 29.95 in ESE 3.4 mph 4.5 mph 71% 0 in 575.22 W/m2
16:14 79 °F 69.3 °F 29.94 in SE 2.5 mph 3.4 mph 72% 0 in 240.76 W/m2
16:19 78.3 °F 68.2 °F 29.95 in SW 1.8 mph 3.4 mph 71% 0 in 392.57 W/m2
16:24 77.9 °F 66.6 °F 29.95 in SW 4.9 mph 8.1 mph 68% 0 in 1034.10 W/m2
16:29 78.8 °F 67.5 °F 29.94 in West 2.9 mph 3.4 mph 68% 0 in 860.14 W/m2
16:34 79 °F 67.6 °F 29.94 in SSW 1.8 mph 3.4 mph 68% 0 in 931.83 W/m2
16:39 78.6 °F 67.3 °F 29.94 in SSE 1.1 mph 1.1 mph 68% 0 in 327.00 W/m2
16:44 79.5 °F 68 °F 29.94 in ESE 0.9 mph 2.2 mph 68% 0 in 925.71 W/m2
16:49 78.4 °F 67.1 °F 29.95 in SW 5.6 mph 6.9 mph 68% 0 in 920.46 W/m2
16:54 78.1 °F 66.7 °F 29.95 in SW 2.9 mph 3.4 mph 68% 0 in 936.61 W/m2
16:59 79 °F 66.2 °F 29.95 in SSW 6.5 mph 9.2 mph 65% 0 in 586.84 W/m2
17:04 79.7 °F 66.9 °F 29.95 in South 8.1 mph 10.3 mph 65% 0 in 810.36 W/m2
17:09 79 °F 65.3 °F 29.95 in SE 2.5 mph 5.8 mph 63% 0 in 844.97 W/m2
17:14 79.3 °F 67.1 °F 29.96 in ESE 0.9 mph 1.1 mph 66% 0 in 839.83 W/m2
17:19 79 °F 65.8 °F 29.96 in SSW 2.2 mph 4.5 mph 64% 0 in 792.12 W/m2
17:24 79.2 °F 66 °F 29.96 in ENE 2.2 mph 3.4 mph 64% 0 in 798.61 W/m2
17:29 78.8 °F 65.1 °F 29.96 in SW 3.6 mph 4.5 mph 63% 0 in 762.64 W/m2
17:34 78.8 °F 65.1 °F 29.96 in SSW 2.2 mph 2.2 mph 63% 0 in 743.07 W/m2
17:39 78.4 °F 64.8 °F 29.96 in SSE 3.8 mph 4.5 mph 63% 0 in 665.87 W/m2
17:44 78.6 °F 63.7 °F 29.97 in South 6.5 mph 9.2 mph 60% 0 in 703.19 W/m2
17:49 78.6 °F 64 °F 29.96 in SW 4 mph 5.8 mph 61% 0 in 657.19 W/m2
17:54 79 °F 64.4 °F 29.96 in SSW 1.6 mph 2.2 mph 61% 0 in 575.22 W/m2
17:59 79.7 °F 64.6 °F 29.96 in South 1.8 mph 3.4 mph 60% 0 in 538.77 W/m2
18:04 79.2 °F 63.7 °F 29.96 in SSW 3.8 mph 6.9 mph 59% 0 in 507.08 W/m2
18:09 78.8 °F 63.3 °F 29.96 in South 2.5 mph 3.4 mph 59% 0 in 469.28 W/m2
18:14 78.6 °F 63.1 °F 29.97 in South 1.8 mph 2.2 mph 59% 0 in 437.72 W/m2
18:19 78.8 °F 64.2 °F 29.96 in ESE 0.7 mph 1.1 mph 61% 0 in 409.46 W/m2
18:24 79.3 °F 63.9 °F 29.97 in SSW 0.9 mph 1.1 mph 59% 0 in 381.69 W/m2
18:29 79.3 °F 64.8 °F 29.97 in SSW 3.4 mph 4.5 mph 61% 0 in 352.20 W/m2
18:34 79.5 °F 64.4 °F 29.98 in SE 0.4 mph 1.1 mph 60% 0 in 330.06 W/m2
18:39 79.3 °F 64.2 °F 29.98 in WSW 4.3 mph 5.8 mph 60% 0 in 295.81 W/m2
18:44 79.2 °F 64.6 °F 29.98 in WSW 0.4 mph 1.1 mph 61% 0 in 271.10 W/m2
18:49 79 °F 63.5 °F 29.98 in SSE 1.8 mph 2.2 mph 59% 0 in 69.73 W/m2
18:54 78.1 °F 62.1 °F 29.97 in West 3.6 mph 5.8 mph 58% 0 in 229.01 W/m2
18:59 78.4 °F 63.5 °F 29.97 in SE 2.9 mph 4.5 mph 60% 0 in 197.81 W/m2
19:04 78.3 °F 63.3 °F 29.97 in South 0.9 mph 1.1 mph 60% 0 in 65.94 W/m2
19:09 78.3 °F 62.2 °F 29.98 in SE 2.2 mph 3.4 mph 58% 0 in 163.07 W/m2
19:14 77.9 °F 62.4 °F 29.98 in SSW 5.6 mph 8.1 mph 59% 0 in 64.10 W/m2
19:19 77.7 °F 62.8 °F 29.98 in SSE 0.4 mph 1.1 mph 60% 0 in 63.24 W/m2
19:24 77.7 °F 62.8 °F 29.98 in SSW 1.6 mph 2.2 mph 60% 0 in 58.97 W/m2
19:29 77.4 °F 63 °F 29.98 in South 1.3 mph 2.2 mph 61% 0 in 55.05 W/m2
19:34 77.4 °F 63 °F 29.98 in SW 2 mph 2.2 mph 61% 0 in 54.19 W/m2
19:39 76.8 °F 62.8 °F 29.97 in SSE 0.9 mph 2.2 mph 62% 0 in 48.93 W/m2
19:44 76.3 °F 62.2 °F 29.98 in SE 3.1 mph 5.8 mph 62% 0 in 47.71 W/m2
19:49 75.7 °F 62.2 °F 29.98 in SSW 2.5 mph 4.5 mph 63% 0 in 44.65 W/m2
19:54 75.6 °F 61.7 °F 29.98 in SSE 2.5 mph 3.4 mph 62% 0 in 40.24 W/m2
19:59 75.4 °F 61.5 °F 29.98 in SSW 5.1 mph 9.2 mph 62% 0 in 39.02 W/m2
20:04 75.2 °F 61.7 °F 29.99 in SSE 2.5 mph 3.4 mph 63% 0 in 35.11 W/m2
20:09 75 °F 62.1 °F 29.98 in SSW 2.2 mph 2.2 mph 64% 0 in 32.05 W/m2
20:14 74.7 °F 61.7 °F 29.99 in South 2 mph 2.2 mph 64% 0 in 28.14 W/m2
20:19 74.5 °F 62.1 °F 29.99 in ESE 1.1 mph 2.2 mph 65% 0 in 24.71 W/m2
20:24 74.3 °F 61.9 °F 29.99 in SSE 1.1 mph 2.2 mph 65% 0 in 18.60 W/m2
20:29 73.9 °F 61.9 °F 29.99 in SSE 0.9 mph 1.1 mph 66% 0 in 15.53 W/m2
20:34 73.8 °F 61.7 °F 29.99 in SSE 4.5 mph 5.8 mph 66% 0 in 10.39 W/m2
20:39 73.6 °F 61.5 °F 29.99 in SSE 2.5 mph 3.4 mph 66% 0 in 6.85 W/m2
20:44 73.4 °F 61.3 °F 30.00 in SSE 2.7 mph 3.4 mph 66% 0 in 3.79 W/m2
20:49 73.2 °F 61.7 °F 29.99 in South 1.1 mph 1.1 mph 67% 0 in 1.22 W/m2
20:54 73 °F 61.5 °F 30.00 in ESE 2.5 mph 4.5 mph 67% 0 in 0.00 W/m2
20:59 72.9 °F 61.7 °F 30.00 in SSW 1.3 mph 3.4 mph 68% 0 in 0.00 W/m2
21:04 72.9 °F 61.7 °F 30.00 in SW 1.3 mph 2.2 mph 68% 0 in 0.00 W/m2
21:09 72.9 °F 61.7 °F 30.00 in SSE 1.1 mph 1.1 mph 68% 0 in 0.00 W/m2
21:14 72.9 °F 62.1 °F 30.00 in SSW 2.9 mph 4.5 mph 69% 0 in 0.00 W/m2
21:19 72.7 °F 61.9 °F 30.00 in SSE 1.3 mph 2.2 mph 69% 0 in 0.00 W/m2
21:24 72.7 °F 62.4 °F 30.00 in South 0.2 mph 1.1 mph 70% 0 in 0.00 W/m2
21:29 72.7 °F 61.9 °F 30.00 in SSW 0.9 mph 1.1 mph 69% 0 in 0.00 W/m2
21:34 72.5 °F 62.2 °F 30.00 in SW 2.7 mph 5.8 mph 70% 0 in 0.00 W/m2
21:39 72.5 °F 62.6 °F 30.01 in Calm     71% 0 in 0.00 W/m2
21:44 72.3 °F 62.1 °F 30.01 in South 1.8 mph 3.4 mph 70% 0 in 0.00 W/m2
21:49 72.1 °F 62.2 °F 30.01 in SSW 1.1 mph 1.1 mph 71% 0 in 0.00 W/m2
21:54 72 °F 62.1 °F 30.01 in SSE 1.8 mph 2.2 mph 71% 0 in 0.00 W/m2
21:59 71.8 °F 62.2 °F 30.01 in SW 0.2 mph 1.1 mph 72% 0 in 0.00 W/m2
22:04 71.8 °F 62.2 °F 30.02 in South 1.1 mph 2.2 mph 72% 0 in 0.00 W/m2
22:09 71.8 °F 62.2 °F 30.02 in Calm     72% 0 in 0.00 W/m2
Soleil Laural Canyon
Compliments of Weather Underground - 4 mb